EA5ZF Weather Reports


Display with metric or nautical units.
time (UTC)temp
F
wind
direction
speed
MPH
gust
MPH
rain 1hr
in
rain 24hr
in
rain mn
in
humidity
%
barometer
mb
20260508035522 55 0.0 0.0 0.00 0.00 0.00 83 1012.4
20260508034542 55 0.0 1.0 0.00 0.00 0.00 83 1012.4
20260508033523 55 0.0 0.0 0.00 0.00 0.00 84 1012.6
20260508032522 56 0.0 2.0 0.00 0.00 0.00 83 1012.7
20260508031522 56 0.0 1.0 0.00 0.00 0.00 84 1012.8
20260508030522 56 0.0 0.0 0.00 0.00 0.00 84 1012.9
20260508025522 55 0.0 0.0 0.00 0.00 0.00 85 1013.0
20260508024522 55 0.0 1.0 0.00 0.00 0.00 84 1013.2
20260508023601 56 0.0 2.0 0.00 0.00 0.00 84 1013.2
20260508022522 56 0.0 1.0 0.00 0.00 0.00 84 1013.2
20260508021542 56 0.0 0.0 0.00 0.00 0.00 84 1013.2
20260508020522 56 0.0 1.0 0.00 0.00 0.00 84 1013.2
20260508015522 57 0.0 1.0 0.00 0.00 0.00 83 1013.3
20260508014524 57 0.0 1.0 0.00 0.00 0.00 85 1013.3
20260508013522 57 0.0 0.0 0.00 0.00 0.00 85 1013.4
20260508012522 57 0.0 0.0 0.00 0.00 0.00 85 1013.4
20260508011521 57 0.0 0.0 0.00 0.00 0.00 84 1013.5
20260508010528 57 0.0 2.0 0.00 0.00 0.00 84 1013.6
20260508005522 57 203 1.0 3.0 0.00 0.00 0.00 84 1013.6
20260508004522 57 225 1.0 3.0 0.00 0.00 0.00 85 1013.6
20260508003523 57 0.0 2.0 0.00 0.00 0.00 86 1013.7
20260508002529 57 0.0 1.0 0.00 0.00 0.00 85 1013.8
20260508001522 57 0.0 0.0 0.00 0.00 0.00 85 1013.9
20260508000523 57 0.0 0.0 0.00 0.00 0.00 84 1014.1
20260507235530 57 0.0 1.0 0.00 0.00 0.00 84 1014.2
20260507234521 57 0.0 0.0 0.00 0.00 0.00 85 1014.2
20260507233527 57 0.0 0.0 0.00 0.00 0.00 85 1014.3
20260507232605 58 0.0 0.0 0.00 0.00 0.00 83 1014.2
20260507231549 58 0.0 0.0 0.00 0.00 0.00 83 1014.4
20260507230526 58 0.0 0.0 0.00 0.00 0.00 85 1014.5
20260507225528 58 0.0 0.0 0.00 0.00 0.00 82 1014.6
20260507224532 58 0.0 0.0 0.00 0.00 0.00 81 1014.7
20260507223522 59 0.0 1.0 0.00 0.00 0.00 80 1014.7
20260507222525 59 0.0 1.0 0.00 0.00 0.00 80 1014.6
20260507221548 59 0.0 0.0 0.00 0.00 0.00 80 1014.6
20260507220522 59 0.0 2.0 0.00 0.00 0.00 79 1014.5
20260507215543 60 0.0 0.0 0.00 0.00 0.00 78 1014.4
20260507214524 60 0.0 0.0 0.00 0.00 0.00 83 1014.3
20260507213522 61 0.0 0.0 0.00 0.00 0.00 82 1014.3
20260507212523 61 0.0 1.0 0.00 0.00 0.00 82 1014.2
20260507211526 61 0.0 2.0 0.00 0.00 0.00 81 1014.1
20260507210522 61 315 1.0 3.0 0.00 0.00 0.00 79 1014.0
20260507205522 61 0.0 1.0 0.00 0.00 0.00 77 1013.8
20260507204522 61 0.0 1.0 0.00 0.00 0.00 77 1013.9
20260507203523 61 0.0 2.0 0.00 0.00 0.00 77 1013.9
20260507202522 61 0.0 1.0 0.00 0.00 0.00 75 1013.9
20260507201522 61 0.0 2.0 0.00 0.00 0.00 72 1013.8
20260507200522 61 0.0 2.0 0.00 0.00 0.00 70 1013.6
20260507195522 61 0.0 2.0 0.00 0.00 0.00 70 1013.6
20260507194541 62 338 1.0 3.0 0.00 0.00 0.00 71 1013.5
20260507193542 62 0.0 2.0 0.00 0.00 0.00 70 1013.3
20260507192524 62 338 1.0 3.0 0.00 0.00 0.00 69 1013.2
20260507191522 62 315 1.0 2.0 0.00 0.00 0.00 67 1013.3
20260507190523 63 293 1.0 4.0 0.00 0.00 0.00 66 1013.2
20260507185522 63 0.0 1.0 0.00 0.00 0.00 69 1013.2
20260507184525 63 0.0 1.0 0.00 0.00 0.00 69 1013.2
20260507183520 64 0.0 2.0 0.00 0.00 0.00 68 1013.1
20260507182523 64 338 1.0 4.0 0.00 0.00 0.00 67 1013.1
20260507181533 64 45 1.0 5.0 0.00 0.00 0.00 68 1013.0
20260507180526 64 68 1.0 4.0 0.00 0.00 0.00 64 1012.9
20260507175522 64 315 1.0 3.0 0.00 0.00 0.00 63 1013.0
20260507174524 64 338 2.0 3.0 0.00 0.00 0.00 62 1012.9
20260507173528 64 338 1.0 4.0 0.00 0.00 0.00 62 1012.8
20260507172523 64 315 4.0 7.0 0.00 0.00 0.00 61 1012.7
20260507171522 64 293 3.0 6.0 0.00 0.00 0.00 63 1012.6
20260507170522 64 0.0 3.0 0.00 0.00 0.00 66 1012.5
20260507165522 64 315 1.0 3.0 0.00 0.00 0.00 64 1012.5
20260507164522 64 338 3.0 6.0 0.00 0.00 0.00 64 1012.5
20260507163527 64 315 3.0 6.0 0.00 0.00 0.00 63 1012.5
20260507162521 63 315 5.0 9.0 0.00 0.00 0.00 63 1012.3
20260507161523 64 315 4.0 9.0 0.00 0.00 0.00 65 1012.2
20260507160522 65 45 2.0 9.0 0.00 0.00 0.00 72 1012.3
20260507155542 65 68 2.0 7.0 0.00 0.00 0.00 73 1012.2
20260507154521 65 68 3.0 7.0 0.00 0.00 0.00 70 1012.1
20260507153523 65 68 5.0 10.0 0.00 0.00 0.00 73 1012.1
20260507152522 66 113 3.0 7.0 0.00 0.00 0.00 73 1012.0
20260507151547 65 68 4.0 8.0 0.00 0.00 0.00 74 1012.0
20260507150521 66 68 4.0 9.0 0.00 0.00 0.00 73 1012.1
20260507145527 66 68 3.0 7.0 0.00 0.00 0.00 70 1012.1
20260507144523 66 68 3.0 9.0 0.00 0.00 0.00 68 1012.1
20260507143523 66 45 4.0 11.0 0.00 0.00 0.00 60 1012.1
20260507142545 66 135 5.0 13.0 0.00 0.00 0.00 70 1012.2
20260507141522 67 113 5.0 11.0 0.00 0.00 0.00 71 1012.3
20260507140522 68 113 4.0 9.0 0.00 0.00 0.00 70 1012.4
20260507135521 68 113 5.0 11.0 0.00 0.00 0.00 65 1012.6
20260507134523 67 68 4.0 7.0 0.00 0.00 0.00 65 1012.6
20260507133522 67 68 3.0 11.0 0.00 0.00 0.00 66 1012.7
20260507132521 67 113 1.0 6.0 0.00 0.00 0.00 64 1012.7
20260507131523 67 113 2.0 6.0 0.00 0.00 0.00 63 1012.7
20260507130523 67 68 3.0 8.0 0.00 0.00 0.00 64 1012.8
20260507125521 67 68 4.0 10.0 0.00 0.00 0.00 64 1013.0
20260507124522 66 68 5.0 10.0 0.00 0.00 0.00 62 1013.0
20260507123521 66 68 4.0 10.0 0.00 0.00 0.00 60 1013.1
20260507122543 66 68 6.0 10.0 0.00 0.00 0.00 63 1013.2
20260507121542 66 68 3.0 7.0 0.00 0.00 0.00 61 1013.4
20260507120521 65 113 3.0 8.0 0.00 0.00 0.00 67 1013.6
20260507115521 65 68 3.0 9.0 0.00 0.00 0.00 69 1013.7
20260507114542 66 113 5.0 11.0 0.00 0.00 0.00 71 1013.8
20260507113523 66 68 4.0 10.0 0.00 0.00 0.00 70 1013.9
20260507112522 67 68 4.0 9.0 0.00 0.00 0.00 68 1013.8
20260507111524 67 68 5.0 11.0 0.00 0.00 0.00 66 1014.0
20260507110521 68 68 3.0 13.0 0.00 0.00 0.00 62 1014.0
20260507105521 68 113 3.0 11.0 0.00 0.00 0.00 59 1013.9
20260507104521 67 45 4.0 12.0 0.00 0.00 0.00 60 1013.9
20260507103521 67 68 5.0 13.0 0.00 0.00 0.00 57 1013.9
20260507102524 68 68 5.0 13.0 0.00 0.00 0.00 57 1014.0
20260507101541 68 45 4.0 14.0 0.00 0.00 0.00 59 1014.0
20260507100521 66 45 5.0 12.0 0.00 0.00 0.00 60 1014.0
20260507095521 67 68 3.0 8.0 0.00 0.00 0.00 60 1014.1
20260507094523 66 68 5.0 11.0 0.00 0.00 0.00 65 1014.2
20260507093523 65 68 1.0 7.0 0.00 0.00 0.00 67 1014.2
20260507092521 65 315 5.0 10.0 0.00 0.00 0.00 68 1014.2
20260507091521 65 45 2.0 6.0 0.00 0.00 0.00 69 1014.1
20260507090528 65 45 4.0 9.0 0.00 0.00 0.00 69 1014.3
20260507085521 65 68 3.0 7.0 0.00 0.00 0.00 68 1014.3
20260507084521 64 45 2.0 7.0 0.00 0.00 0.00 70 1014.2
20260507083521 63 338 4.0 8.0 0.00 0.00 0.00 71 1014.2
20260507082525 63 45 4.0 11.0 0.00 0.00 0.00 72 1014.3
20260507081525 63 68 2.0 7.0 0.00 0.00 0.00 72 1014.2
20260507080523 63 68 5.0 11.0 0.00 0.00 0.00 72 1014.2
20260507075543 63 68 5.0 12.0 0.00 0.00 0.00 72 1014.1
20260507074525 63 45 3.0 10.0 0.00 0.00 0.00 72 1014.2
20260507073523 63 315 3.0 7.0 0.00 0.00 0.00 71 1014.1
20260507072543 63 23 3.0 10.0 0.00 0.00 0.00 72 1013.9
20260507071525 63 68 5.0 10.0 0.00 0.00 0.00 71 1013.9
20260507070523 63 45 3.0 8.0 0.00 0.00 0.00 72 1013.8
20260507065523 62 45 3.0 8.0 0.00 0.00 0.00 73 1013.8
20260507064523 62 45 5.0 9.0 0.00 0.00 0.00 74 1013.7
20260507063525 62 45 4.0 9.0 0.00 0.00 0.00 75 1013.7
20260507062542 61 68 2.0 6.0 0.00 0.00 0.00 75 1013.7
20260507061543 61 45 2.0 5.0 0.00 0.00 0.00 74 1013.7
20260507060523 61 45 2.0 6.0 0.00 0.00 0.00 73 1013.6
20260507055525 61 45 1.0 6.0 0.00 0.00 0.00 70 1013.6
20260507054522 59 0.0 2.0 0.00 0.00 0.00 69 1013.3
20260507053523 56 0.0 0.0 0.00 0.00 0.00 68 1013.2
20260507052523 55 0.0 0.0 0.00 0.00 0.00 69 1013.1
20260507051543 54 0.0 0.0 0.00 0.00 0.00 71 1012.9
20260507050523 53 0.0 1.0 0.00 0.00 0.00 71 1012.9
20260507045522 54 0.0 1.0 0.00 0.00 0.00 71 1012.8
20260507044522 53 0.0 0.0 0.00 0.00 0.00 70 1012.6
20260507043523 54 0.0 0.0 0.00 0.00 0.00 68 1012.6
20260507042527 55 0.0 1.0 0.00 0.00 0.00 68 1012.6
20260507041523 55 0.0 0.0 0.00 0.00 0.00 68 1012.6
20260507040522 55 0.0 1.0 0.00 0.00 0.00 68 1012.6